CZ-2D R/B

Satellite information

Favourite Embed

Satellite Type and Status

ROCKET BODYIN ORBIT

Key statistics

Satellite CZ-2D R/B at a glance.

Uptime

1112

Days in orbit

Revolutions

≈ 14.6

Per day

Orbit

SSO

Sun Synchronous Orbit

Inclination

98.2

Latest

Satellite identification and parameters

Extended collection of information and parameters for CZ-2D R/B.

Object identification

Identified? True

Debris? False

Object name: CZ-2D R/B

International designator: 2022-129B

Object number (NORAD): 54030

Object ID (CCSDS): 54030

Country: PEOPLES REPUBLIC OF CHINA (PRC)

Current information (Y/N): Y

RCS size: LARGE

Orbital parameters

Period: 98.863 minutes

Inclination: 98.2097 deg

SMA: 7082.428 km

Apoapsis: 716.009 km

Periapsis: 692.578 km

RAAN: 298.5222 deg

Eccentricy: 0.00165412

Argument of periapsis: 278.1567 deg

Mean anomaly: 81.7755 deg

Mean motion: 14.56563681 rev/day

Mean motion (dot): 0.00000625 rev/day2

B* drag term: 0.00015044726 1/REarth

Two-line elements (TLE)

Creation date: Oct. 24, 2025, 2:48 a.m.

Reference frame: TEME

Reference center: EARTH

Epoch: Oct. 23, 2025, 10:41 p.m. UTC

TLE line 0: 0 CZ-2D R/B

TLE line 1: 1 54030U 22129B 25296.94572877 .00000625 00000-0 15045-3 0 9992

TLE line 2: 2 54030 98.2097 298.5222 0016541 278.1567 81.7755 14.56563681161615

Live tracking on map

Real-time ground track for satellite CZ-2D R/B.

In-orbit conjunctions

A list of the most updated potential collisions computed for object CZ-2D R/B.

Target Orbit TCA Probability of collision Miss distance Type
FENGYUN 1C DEB SSO 2025-01-17 19:22:40 0.0003563427 89.0 (m) DEBRIS

Associated space launch

ASO-S (Advanced Space-borne Solar Observatory) is a Chinese solar space observatory that aims to study the interaction between the Sun's magnetic field, solar flares and coronal mass ejections. It's the first space solar observatory of China. ASO-S is a 3-axis stabilized satellite with a mass of less than 1,000 kg with a pointing accuracy of 0.01° and an orientation stability of 1 to 2 arc seconds every 20 seconds. The payload has a mass below 335 kg and consumes about 300 watts. The platform's pointing accuracy is lower than 0.01°, the measurement accuracy is lower than 1 arc second and the orientation drift is below 0.0004°/s. ASO-S has three instruments: - The Full-Disc Vector Magnetograph (FMG) instrument is intended to map the magnetic field of the photosphere over the entire solar disk. It includes an imager, an optical polarization system and a CCD detector. - The Hard X-ray Imager (HXI) camera should image the whole solar disk in X-rays. The instrument is optimized to take images of solar flares. - A set of three LST (Lyman-alpha Solar Telescope) telescopes is used to observe the Lyman-alpha line (121.6 nm) of solar flares up to a distance of several solar radii from the Sun's disk. These three telescopes are SDI (to obtain an image of the solar disk), SCI (coronagraph for observation between 1.1 and 2.5 solar radii) and WST (white light emitted by the solar disk used for calibration purposes).

CZ-2D R/B was lifted into orbit during the mission ‘Long March 2D | Advanced Space-borne Solar Observatory (ASO-S)’, on board a Long March 2D space rocket.

The launch took place on Oct. 8, 2022, 11:43 p.m. from Launch Area 4 (SLS-2 / 603).

For more information about the launch, click the button.

Launch to space Long March 2D | Advanced Space-borne Solar Observatory (ASO-S)
Long March 2D | Advanced Space-borne Solar Observatory (ASO-S)

Agency: N/A

Status: Launch Successful

Launch date: Oct. 8, 2022, 11:43 p.m. UTC

Rocket: Long March 2D

Launch pad: Launch Area 4 (SLS-2 / 603)

Location: Jiuquan Satellite Launch Center, People's Republic of China

...

Latest news about this satellite

There are no fresh news available about this satellite. Check back as we update our databases every day.


Newsletter sign-up

Weekly statistics, charts and insights to help you stay on top of the space industry.